Hourly Data Report for January 16, 2022

FLIN FLON
MANITOBA
Current Station Operator: ECCC - MSC

54°41'00.000" N
101°41'00.000" W
303.90 m
5050919
71954
WFO

Download Data

Hourly Data (January 2022)
Hourly Data Report for January 16, 2022
TIME
LST
Temp Definition
°C
Dew Point Definition
°C
Rel Hum Definition
%
Precip. Amount Definition
mm

Wind Dir Definition
10's deg

Wind Spd Definition
km/h
Visibility Definition
km
Stn Press Definition
kPa
Hmdx Definition


Wind Chill Definition


Weather Definition


00:00 -4.5 -5.9 90 0.0 36 21   97.06   -11 LegendNANA
01:00 -6.2 -7.6 89 0.0 35 24   97.13   -14 LegendNANA
02:00 -7.5 -9.2 88 0.0 1 23   97.25   -15 LegendNANA
03:00 -9.6 -11.9 84 0.0 35 18   97.42   -17 LegendNANA
04:00 -11.4 -13.8 82 0.0 34 18   97.46   -19 LegendNANA
05:00 -12.8 -15.1 83 0.0 34 15   97.55   -20 LegendNANA
06:00 -13.8 -15.7 85 0.0 35 15   97.62   -21 LegendNANA
07:00 -14.3 -16.2 86 0.0 2 13   97.72   -21 LegendNANA
08:00 -14.8 -16.8 85 0.0 1 8   97.71   -20 LegendNANA
09:00 -15.1 -17.2 84 0.0 36 10   97.71   -21 LegendNANA
10:00 -15.4 -17.6 83 0.0 33 8   97.77   -21 LegendNANA
11:00 -15.4 -17.7 83 0.0 3 4   97.72   -18 LegendNANA
12:00 -15.0 -17.5 81 0.0 3 3   97.66   -17 LegendNANA
13:00 -14.8 -17.3 81 0.0 2 6   97.56   -19 LegendNANA
14:00 -14.1 -16.8 80 0.4 0 1   97.47   -15 LegendNANA
15:00 -13.9 -16.8 79 0.1 5 3   97.44   -16 LegendNANA
16:00 -14.0 -16.4 82 0.2 3 7   97.42   -19 LegendNANA
17:00 -14.6 -17.0 82 0.2 3 9   97.49   -20 LegendNANA
18:00 -15.1 -17.8 80 0.0 2 13   97.56   -22 LegendNANA
19:00 -15.9 -18.9 77 0.0 3 10   97.61   -22 LegendNANA
20:00 -16.7 -19.8 77 0.0 2 11   97.67   -24 LegendNANA
21:00 -18.7 -21.4 79 0.0 1 10   97.73   -26 LegendNANA
22:00 -20.4 -22.7 81 0.0 1 9   97.75   -27 LegendNANA
23:00 -21.3 -23.8 80 0.0 1 9   97.78   -28 LegendNANA

Notes on Data Quality.

Legend

  • E = Estimated
  • M = Missing
  • NA = Not Available*
  • [empty] = Indicates an unobserved value
Date modified: